Location: Ferchesar
(52.6477°N, 12.4298°E)
Time: 01:08:09
(UTC+01:00)

deb Explorer IX - Pass Details

Date: 07 December 2021
Orbit: 544 x 1082 km, 38.8° (Epoch: 19 January)

Event Time Altitude Azimuth Distance (km) Brightness Sun altitude
Rises 11:37:29 0° 242° (WSW) 2,992 ? 14.5°
Reaches altitude 10° 11:41:05 10° 216° (SW) 1,973 ? 14.6°
Maximum altitude 11:43:12 13° 187° (S) 1,721 ? 14.6°
Drops below altitude 10° 11:45:19 10° 158° (SSE) 1,891 ? 14.6°
Sets 11:48:29 0° 131° (SE) 2,720 ? 14.6°
